TimeMDT,TemperatureF,Dew PointF,Humidity,Sea Level PressureIn,VisibilityMPH,Wind Direction,Wind SpeedMPH,Gust SpeedMPH,PrecipitationIn,Events,Conditions,WindDirDegrees,DateUTC
12:53 AM,80.1,33.1,18,29.82,10.0,SSE,5.8,-,N/A,,Mostly Cloudy,150,2013-07-24 06:53:00
1:53 AM,79.0,34.0,20,29.81,10.0,SE,4.6,-,N/A,,Mostly Cloudy,140,2013-07-24 07:53:00
2:53 AM,80.1,34.0,19,29.81,10.0,South,4.6,-,N/A,,Mostly Cloudy,170,2013-07-24 08:53:00
3:53 AM,77.0,36.0,23,29.81,10.0,Calm,Calm,-,N/A,,Scattered Clouds,0,2013-07-24 09:53:00
4:53 AM,75.9,36.0,23,29.82,10.0,SE,6.9,-,N/A,,Partly Cloudy,130,2013-07-24 10:53:00
5:53 AM,73.9,37.9,27,29.83,10.0,South,10.4,-,N/A,,Mostly Cloudy,190,2013-07-24 11:53:00
6:53 AM,75.9,33.1,21,29.83,10.0,SSE,8.1,-,N/A,,Mostly Cloudy,150,2013-07-24 12:53:00
7:53 AM,79.0,37.0,22,29.85,10.0,SE,6.9,-,N/A,,Mostly Cloudy,140,2013-07-24 13:53:00
8:53 AM,81.0,44.1,27,29.86,10.0,SE,3.5,-,N/A,,Mostly Cloudy,130,2013-07-24 14:53:00
9:53 AM,84.0,43.0,24,29.85,10.0,Calm,Calm,-,N/A,,Mostly Cloudy,0,2013-07-24 15:53:00
10:53 AM,87.1,37.0,17,29.86,10.0,South,4.6,-,N/A,,Mostly Cloudy,170,2013-07-24 16:53:00
11:53 AM,90.0,37.0,15,29.86,10.0,Variable,5.8,-,N/A,,Mostly Cloudy,0,2013-07-24 17:53:00
12:53 PM,90.0,45.0,21,29.86,10.0,SSE,13.8,-,N/A,,Mostly Cloudy,150,2013-07-24 18:53:00
1:53 PM,95.0,44.1,17,29.84,10.0,South,16.1,24.2,N/A,,Scattered Clouds,180,2013-07-24 19:53:00
2:53 PM,96.1,43.0,16,29.82,10.0,SSE,12.7,19.6,N/A,,Scattered Clouds,150,2013-07-24 20:53:00
3:53 PM,96.1,43.0,16,29.80,10.0,SSE,9.2,18.4,N/A,,Mostly Cloudy,150,2013-07-24 21:53:00
4:53 PM,95.0,41.0,15,29.79,10.0,Calm,Calm,-,N/A,,Scattered Clouds,0,2013-07-24 22:53:00
5:53 PM,96.1,42.1,15,29.78,10.0,South,5.8,-,N/A,,Scattered Clouds,190,2013-07-24 23:53:00
6:53 PM,93.9,43.0,17,29.78,10.0,SSW,8.1,-,N/A,,Scattered Clouds,200,2013-07-25 00:53:00
7:53 PM,90.0,46.9,23,29.78,10.0,South,8.1,-,N/A,,Scattered Clouds,190,2013-07-25 01:53:00
8:53 PM,88.0,50.0,27,29.81,10.0,Calm,Calm,-,N/A,,Mostly Cloudy,0,2013-07-25 02:53:00
9:53 PM,87.1,50.0,28,29.80,10.0,SE,10.4,-,N/A,,Scattered Clouds,140,2013-07-25 03:53:00
10:53 PM,82.0,48.9,31,29.81,10.0,SE,10.4,-,N/A,,Scattered Clouds,130,2013-07-25 04:53:00
11:53 PM,79.0,51.1,38,29.81,10.0,SSE,6.9,-,N/A,,Scattered Clouds,160,2013-07-25 05:53:00